Probability
0 0 0 0 0 0 0 0 0 0 0 0 0 0 0 0 0 0 0 0 0 0 0 0 0 0 0 0 0 0 0 0 0 0 0 0 0 0 0 0 0 0 0
0 0 0 0 0 0 0 0 0 0 0 0 0 0 0 0 0 0 0 0 0 0 0 0 0 0 0 0 0 0 0 0 0 0 0 0 0 0 0 0 0 0 0
0 0 0 0 0 0 0 0 0 0 0 0 0 0 0 0 0 0 0 0 0 0 0 0 0 0 0 0 0 0 0 0 0 0 0 0 0 0 0 0 0 0 0
0 0 0 0 0 0 0 0 0 0 0 0 0 0 0 0 0 0 0 0 0 0 0 0 0 0 0 0 0 0 0 0 0 0 0 0 0 0 0 0 0 0 0
0 0 0 0 0 0 0 0 0 0 0 0 0 0 0 0 0 0 0 0 0 0 0 0 0 0 0 0 0 0 0 0 0 0 0 0 0 0 0 0 0 0 0
0 0 0 0 0 0 0 0 0 0 0 0 0 0 0 0 0 0 0 0 0 0 0 0 0 0 0 0 0 0 0 0 0 0 0 0 0 0 0 0 0 0 0
0 0 0 0 0 0 0 0 0 0 0 0 0 0 0 0 0 0 0 0 0 0 0 0 0 0 0 0 0 0 0 0 0 0 0 0 0 0 0 0 0 0 0
0 0 0 0 0 0 0 0 0 0 0 0 0 0 0 0 0 0 0 0 0 0 0 0 0 0 0 0 0 0 0 0 0 0 0 0 0 0 0 0 0 0 0
0 0 0 0 0 0 0 0 0 0 0 0 0 0 0 0 0 0 0 0 0 0 0 0 0 0 0 0 0 0 0 0 0 0 0 0 0 0 0 0 0 0 0
0 0 0 0 0 0 0 0 0 0 0 0 0 0 0 0 0 0 0 0 0 0 0 0 0 0 0 0 0 0 0 0 0 0 0 0 0 0 0 0 0 0 0
0 0 0 0 0 0 0 0 0 0 0 0 0 0 0 0 0 0 0 0 0 0 0 0 0 0 0 0 0 0 0 0 0 0 0 0 0 0 0 0 0 0 0
0 0 0 0 0 0 0 0 0 0 0 0 0 0 0 0 0 0 0 0 0 0 0 0 0 0 0 0 0 0 0 0 0 0 0 0 0 0 0 0 0 0 0
0 0 0 0 0 0 0 0 0 0 0 0 0 0 0 0 0 0 0 0 0 0 0 0 0 0 0 0 0 0 0 0 0 0 0 0 0 0 0 0 0 0 0
0 0 0 0 0 0 0 0 0 0 0 0 0 0 0 0 0 0 0 0 0 0 0 0 0 0 0 0 0 0 0 0 0 0 0 0 0 0 0 0 0 0 0
0 0 0 0 0 0 0 0 0 0 0 0 0 0 0 0 0 0 0 0 0 0 0 0 0 0 0 0 0 0 0 0 0 0 0 0 0 0 0 0 0 0 0
0 0 0 0 0 0 0 0 0 0 0 0 0 0 0 0 0 0 0 0 0 0 0 0 0 0 0 0 0 0 0 0 0 0 0 0 0 0 0 0 0 0 0
0 0 0 0 0 0 0 0 0 0 0 0 0 0 0 0 0 0 0 0 0 0 0 0 0 0 0 0 0 0 0 0 0 0 0 0 0 0 0 0 0 0 0
0 0 0 0 0 0 0 0 0 0 0 0 0 0 0 0 0 0 0 0 0 0 0 0 0 0 0 0 0 0 0 0 0 0 0 0 0 0 0 0 0 0 0
0 0 0 0 0 0 0 0 0 0 0 0 0 0 0 0 0 0 0 0 0 0 0 0 0 0 0 0 0 0 0 0 0 0 0 0 0 0 0 0 0 0 0
0 0 0 0 0 0 0 0 0 0 0 0 0 0 0 0 0 0 0 0 0 0 0 0 0 0 0 0 0 0 0 0 0 0 0 0 0 0 0 0 0 0 0
0 0 0 0 0 0 0 0 0 0 0 0 0 0 0 0 0 0 0 0 0 0 0 0 0 0 0 0 0 0 0 0 0 0 0 0 0 0 0 0 0 0 0
0 0 0 0 0 0 0 0 0 0 0 0 0 0 0 0 0 0 0 0 0 0 0 0 0 0 0 0 0 0 0 0 0 0 0 0 0 0 0 0 0 0 0
0 0 0 0 0 0 0 0 0 0 0 0 0 0 0 0 0 0 0 0 0 0 0 0 0 0 0 0 0 0 0 0 0 0 0 0 0 0 0 0 0 0 0
0 0 0 0 0 0 0 0 0 0 0 0 0 0 0 0 0 0 0 0 0 0 0 0 0 0 0 0 0 0 0 0 0 0 0 0 0 0 0 0 0 0 0
0 0 0 0 0 0 0 0 0 0 0 0 0 0 0 0 0 0 0 0 0 0 0 0 0 0 0 0 0 0 0 0 0 0 0 0 0 0 0 0 0 0 0
0 0 0 0 0 0 0 0 0 0 0 0 0 0 0 0 0 0 0 0 0 0 0 0 0 0 0 0 0 0 0 0 0 0 0 0 0 0 0 0 0 0 0
Height
5863 5862 5860 5859 5858 5856 5855 5853 5852 5851 5849 5847 5845 5844 5842 5841 5840 5838 5836 5834 5832 5831 5829 5828 5827 5826 5824 5823 5822 5821 5820 5819 5818 5817 5816 5815 5814 5812 5811 5811 5810 5809 5809
5858 5857 5856 5855 5853 5851 5850 5848 5846 5845 5844 5842 5840 5838 5836 5835 5833 5831 5829 5828 5826 5824 5823 5821 5820 5819 5818 5816 5815 5814 5814 5813 5812 5811 5810 5809 5809 5808 5807 5806 5805 5805 5804
5853 5852 5851 5850 5848 5846 5844 5842 5840 5838 5837 5835 5833 5831 5829 5828 5826 5824 5822 5821 5819 5817 5816 5814 5813 5811 5810 5809 5808 5807 5807 5806 5805 5805 5804 5804 5803 5802 5801 5801 5800 5800 5799
5847 5846 5845 5844 5842 5840 5838 5836 5834 5832 5829 5827 5825 5823 5821 5820 5818 5816 5814 5812 5811 5809 5807 5806 5805 5803 5802 5801 5800 5799 5799 5798 5798 5797 5797 5797 5796 5796 5795 5795 5794 5794 5794
5841 5839 5838 5837 5835 5833 5831 5829 5827 5824 5822 5820 5817 5815 5813 5811 5809 5807 5806 5803 5801 5800 5798 5796 5795 5795 5794 5793 5792 5791 5790 5790 5789 5789 5789 5789 5789 5788 5788 5788 5787 5787 5787
5833 5832 5831 5829 5827 5825 5823 5820 5818 5815 5813 5810 5807 5805 5804 5802 5800 5798 5796 5794 5791 5789 5788 5786 5785 5785 5784 5783 5782 5781 5781 5780 5780 5780 5780 5780 5780 5779 5779 5779 5779 5779 5779
5826 5824 5823 5821 5818 5816 5814 5811 5808 5805 5803 5799 5797 5795 5793 5791 5789 5787 5785 5783 5781 5779 5777 5776 5775 5774 5773 5773 5772 5771 5771 5771 5770 5770 5770 5770 5770 5770 5770 5770 5770 5770 5771
5817 5815 5813 5811 5809 5807 5804 5801 5798 5795 5793 5789 5785 5782 5781 5780 5778 5774 5772 5771 5770 5767 5766 5765 5763 5762 5762 5761 5761 5761 5760 5760 5760 5760 5760 5759 5759 5759 5760 5760 5760 5761 5761
5808 5806 5804 5801 5799 5796 5794 5791 5788 5784 5781 5778 5774 5770 5767 5767 5765 5762 5760 5758 5756 5755 5754 5752 5751 5750 5750 5750 5750 5749 5749 5749 5749 5748 5748 5748 5748 5748 5748 5749 5749 5750 5750
5800 5797 5795 5792 5789 5786 5784 5780 5777 5773 5770 5767 5763 5759 5755 5752 5750 5748 5747 5744 5742 5741 5740 5739 5738 5737 5737 5737 5737 5737 5737 5737 5736 5736 5736 5736 5736 5736 5736 5736 5737 5738 5738
5790 5788 5785 5782 5779 5776 5773 5770 5766 5762 5758 5755 5751 5747 5742 5738 5735 5732 5731 5730 5727 5725 5724 5723 5723 5723 5723 5723 5724 5724 5724 5723 5723 5723 5723 5723 5723 5723 5723 5723 5724 5725 5726
5780 5778 5775 5773 5770 5766 5763 5759 5755 5751 5747 5743 5739 5734 5729 5725 5721 5717 5713 5712 5710 5708 5707 5706 5707 5708 5708 5708 5709 5709 5709 5709 5709 5709 5709 5709 5709 5709 5709 5710 5710 5711 5712
5769 5767 5765 5762 5759 5756 5752 5748 5744 5740 5735 5731 5726 5721 5716 5710 5705 5700 5695 5693 5690 5689 5689 5689 5690 5690 5692 5692 5693 5694 5694 5694 5694 5694 5694 5694 5695 5695 5695 5695 5696 5697 5698
5759 5757 5755 5752 5749 5745 5742 5738 5733 5729 5724 5718 5713 5707 5701 5695 5688 5682 5677 5672 5669 5669 5670 5671 5671 5672 5674 5676 5678 5679 5679 5680 5679 5679 5679 5679 5679 5680 5681 5681 5682 5683 5684
5750 5747 5744 5742 5738 5735 5731 5727 5723 5718 5712 5706 5699 5693 5686 5679 5671 5665 5659 5654 5651 5649 5651 5653 5654 5655 5657 5659 5662 5664 5665 5666 5665 5665 5666 5665 5665 5666 5666 5667 5668 5668 5669
5740 5737 5735 5731 5728 5725 5721 5716 5712 5706 5700 5694 5686 5679 5671 5663 5656 5649 5643 5638 5635 5633 5634 5637 5639 5641 5642 5644 5647 5649 5651 5652 5652 5652 5652 5652 5651 5652 5653 5653 5653 5654 5654
5730 5728 5725 5722 5718 5714 5710 5706 5701 5695 5689 5682 5674 5666 5658 5650 5642 5635 5630 5625 5622 5621 5620 5623 5625 5626 5628 5631 5634 5636 5638 5639 5639 5638 5638 5638 5638 5638 5638 5638 5638 5638 5638
5721 5718 5715 5712 5708 5705 5700 5696 5690 5684 5678 5671 5664 5655 5647 5639 5632 5625 5620 5616 5613 5611 5611 5612 5614 5616 5617 5620 5622 5624 5626 5626 5626 5626 5626 5626 5625 5624 5624 5623 5622 5622 5621
5711 5708 5706 5702 5699 5695 5691 5686 5680 5674 5668 5662 5655 5647 5639 5631 5624 5618 5613 5609 5606 5604 5604 5604 5606 5607 5609 5611 5612 5614 5614 5614 5614 5614 5613 5612 5611 5610 5608 5607 5606 5605 5604
5702 5699 5696 5693 5690 5686 5681 5677 5671 5666 5660 5654 5647 5640 5633 5626 5619 5613 5608 5604 5602 5600 5599 5599 5599 5600 5601 5602 5603 5604 5604 5603 5603 5602 5600 5598 5596 5594 5593 5592 5590 5588 5586
5693 5690 5688 5684 5681 5677 5673 5668 5663 5658 5652 5647 5641 5634 5628 5622 5616 5610 5605 5601 5598 5596 5595 5594 5594 5594 5594 5595 5595 5594 5593 5592 5591 5589 5587 5584 5582 5580 5577 5575 5572 5570 5567
5685 5682 5679 5676 5672 5668 5664 5660 5655 5650 5646 5641 5635 5630 5624 5618 5613 5607 5603 5599 5596 5593 5591 5590 5589 5589 5588 5587 5586 5585 5583 5581 5579 5577 5574 5570 5567 5564 5560 5557 5554 5550 5547
5677 5674 5671 5668 5665 5661 5657 5653 5648 5644 5640 5635 5630 5625 5620 5615 5610 5605 5601 5597 5593 5590 5588 5587 5585 5583 5581 5580 5578 5576 5573 5571 5568 5564 5561 5556 5552 5547 5543 5538 5534 5531 5527
5670 5667 5664 5661 5657 5654 5650 5646 5642 5638 5634 5630 5625 5621 5616 5612 5607 5603 5598 5595 5591 5588 5585 5582 5580 5577 5575 5572 5569 5566 5563 5559 5556 5552 5547 5542 5536 5531 5526 5521 5516 5512 5508
5663 5660 5657 5654 5651 5647 5644 5640 5636 5632 5629 5625 5620 5616 5612 5608 5603 5599 5595 5591 5587 5584 5580 5577 5573 5570 5567 5563 5559 5556 5551 5547 5542 5538 5533 5527 5521 5515 5508 5503 5498 5494 5490
5657 5654 5651 5648 5645 5641 5638 5634 5631 5627 5623 5619 5615 5611 5607 5602 5598 5594 5590 5585 5581 5577 5573 5569 5565 5561 5557 5552 5548 5543 5538 5533 5527 5522 5517 5512 5505 5499 5494 5486 5480 5476 5473
Wind_Speed
23 24 25 26 27 28 28 29 29 29 30 31 32 32 32 31 30 30 30 30 30 29 29 28 28 28 28 27 27 27 26 26 25 23 22 20 19 18 17 16 16 15 15
25 26 27 28 29 30 31 31 32 32 32 33 34 35 35 34 34 33 33 32 32 32 31 30 30 30 30 29 28 28 28 27 26 25 24 22 21 20 19 19 18 17 17
28 28 29 29 31 32 32 33 34 35 35 36 37 38 38 37 37 37 36 36 35 35 34 33 32 32 31 31 30 30 29 28 28 27 26 25 24 23 23 22 21 20 20
30 31 31 32 33 34 34 35 36 37 38 39 40 41 41 41 40 40 39 39 38 38 37 36 35 34 34 33 33 32 31 30 30 29 29 29 28 27 26 26 25 24 23
33 33 34 35 36 36 37 38 39 40 41 42 43 43 44 44 44 44 43 42 42 41 40 40 38 37 36 36 35 35 34 33 33 32 32 32 31 31 31 30 29 28 27
35 36 37 38 39 39 40 41 42 43 43 44 45 46 46 46 47 46 46 46 45 45 44 43 42 41 40 39 38 37 37 36 36 35 35 35 35 35 34 34 33 32 32
38 38 39 40 41 42 42 43 44 45 46 47 48 48 48 49 49 49 49 49 48 48 47 46 45 44 43 42 42 41 40 39 39 38 38 38 38 39 38 38 37 36 35
40 41 42 42 43 44 45 46 46 47 48 49 50 51 51 51 50 51 52 52 51 50 49 48 47 47 46 45 45 44 43 42 41 41 42 42 42 42 42 42 41 40 39
42 43 44 45 46 46 47 47 48 49 49 50 51 53 54 54 54 54 55 54 53 52 51 50 49 49 49 48 47 46 45 45 45 44 43 44 44 45 44 44 44 43 42
43 44 45 46 47 48 48 48 49 50 51 51 53 54 55 56 57 56 56 56 55 55 54 53 52 51 51 50 49 48 47 47 48 47 47 46 46 47 47 47 47 47 45
43 44 45 46 47 47 48 48 49 50 51 52 53 54 56 57 58 59 59 59 59 58 58 57 55 54 53 52 51 50 50 50 50 49 49 48 48 48 48 47 48 49 48
44 45 45 45 46 46 47 48 49 50 51 52 54 55 57 59 60 62 62 62 62 61 60 59 57 56 55 54 53 53 53 52 53 52 51 50 50 49 50 49 49 49 49
44 45 45 45 45 45 46 47 48 48 50 52 54 56 58 60 62 63 64 64 63 62 61 60 60 58 56 55 54 54 55 54 54 53 52 51 50 48 48 48 49 49 50
44 44 44 44 44 45 45 45 46 48 50 52 54 56 58 60 62 62 62 62 62 61 60 58 57 58 58 57 56 55 54 54 54 53 50 51 49 47 47 48 48 48 48
42 43 43 44 44 44 44 44 45 47 49 51 53 55 56 58 59 58 58 58 58 57 55 53 53 53 54 55 56 55 54 53 53 51 49 45 44 46 47 46 46 47 47
41 42 42 42 42 42 43 44 45 47 48 50 51 52 53 52 52 52 52 51 52 53 52 50 51 50 50 51 52 54 54 54 52 50 50 48 47 46 45 45 46 48 49
40 40 40 39 40 40 42 43 44 45 46 47 48 49 49 48 47 46 44 44 45 45 45 45 47 48 48 49 49 49 51 52 50 48 48 49 49 49 49 50 50 50 51
38 38 37 37 38 39 40 41 42 43 43 44 44 44 43 44 43 41 38 37 38 39 38 39 41 43 45 46 47 48 48 49 49 50 50 50 51 51 51 51 51 52 52
35 35 36 36 37 38 38 39 40 40 40 40 39 39 38 38 37 35 33 32 33 32 32 33 35 36 39 42 45 47 49 49 49 49 50 52 52 51 50 50 50 51 52
33 34 35 35 35 36 36 37 37 36 36 35 34 34 34 34 33 31 29 28 28 27 28 29 31 33 35 38 41 44 46 47 49 49 49 50 50 50 50 51 52 53 55
32 32 33 33 34 34 34 34 33 32 32 31 31 31 31 30 29 28 26 25 24 23 24 25 27 29 32 35 37 39 42 43 45 46 47 48 49 50 52 53 55 57 58
30 30 30 31 32 32 32 31 30 29 29 28 28 28 27 26 26 25 23 22 22 22 22 23 24 26 28 31 33 36 39 41 43 45 47 49 51 53 54 56 57 58 59
27 28 29 29 29 29 28 28 27 27 26 26 25 25 24 24 24 23 22 21 21 20 21 23 24 26 28 30 33 35 38 40 43 46 48 51 53 55 57 58 58 59 58
25 26 26 26 26 26 26 25 24 24 24 23 23 22 22 22 23 23 22 22 21 22 23 24 25 27 30 32 35 37 40 43 46 48 50 52 55 56 58 58 58 57 56
23 24 24 25 24 24 23 23 22 22 22 23 23 23 23 24 24 24 24 25 25 26 27 28 30 32 34 36 38 41 43 46 48 50 52 53 55 55 56 56 56 55 53
23 23 24 23 23 23 22 22 22 23 24 24 25 26 26 27 27 28 29 29 30 31 32 33 34 36 38 40 42 44 46 48 50 52 53 54 54 54 52 52 53 53 52
Wind_Direction
287 288 289 290 291 290 290 290 289 288 288 288 287 287 288 288 288 287 287 287 287 286 284 282 280 278 277 277 278 279 280 280 279 276 274 274 274 274 275 274 273 272 272
284 286 288 289 289 290 290 290 290 289 288 287 287 286 286 286 286 285 285 285 285 284 283 281 279 278 276 275 275 275 276 277 275 272 270 269 269 270 271 271 270 270 271
283 284 286 288 288 289 290 290 290 290 289 288 287 286 286 285 284 283 283 283 282 282 281 280 279 277 275 274 272 271 272 273 271 269 268 267 266 267 267 268 267 268 269
282 284 286 287 287 288 288 288 288 288 287 287 286 285 284 283 282 281 281 280 279 279 278 278 277 276 274 273 271 269 269 269 268 267 266 265 265 265 265 265 265 265 266
281 283 285 286 287 288 288 288 288 287 286 285 284 284 283 282 282 281 280 279 278 277 275 274 274 274 273 272 270 269 267 267 266 265 265 265 265 265 264 264 263 264 265
281 283 285 286 287 288 288 288 288 288 287 286 285 285 284 283 282 281 280 278 277 276 274 273 272 271 271 270 269 268 267 266 265 265 265 265 265 265 265 264 264 264 265
281 283 285 286 287 287 288 288 288 288 288 287 286 286 285 284 284 282 280 278 277 275 274 273 272 270 269 269 268 268 267 266 266 265 265 265 266 266 266 266 265 265 266
282 284 285 286 286 287 288 288 289 288 288 288 287 287 286 285 285 283 281 280 278 276 274 272 271 270 269 268 268 267 267 267 266 266 267 266 266 266 266 266 266 265 265
280 282 284 285 286 287 288 289 289 289 288 288 287 287 287 287 285 283 283 281 279 277 275 273 270 269 268 268 268 268 267 267 267 267 268 269 268 267 266 266 266 265 265
279 281 283 284 286 287 288 288 289 289 289 288 288 288 287 287 287 286 283 281 279 276 274 271 269 268 267 267 267 267 268 268 268 267 268 269 269 269 267 266 266 265 264
278 280 282 284 285 286 287 288 288 289 289 289 289 288 288 287 286 285 284 282 279 276 272 269 267 266 265 265 265 266 267 269 268 269 269 269 270 269 266 265 265 264 264
279 281 283 284 285 286 287 288 288 289 290 290 291 290 289 288 287 285 284 281 278 275 272 268 265 263 263 263 263 264 265 269 269 270 270 271 270 269 267 266 265 263 263
280 282 283 284 285 286 287 288 289 290 292 292 292 291 290 289 287 285 283 281 277 274 270 267 264 262 261 261 261 262 264 267 268 270 272 272 270 270 269 269 266 264 262
281 282 283 284 286 287 288 289 290 293 294 294 294 293 292 290 288 285 283 280 277 272 268 265 263 261 259 259 259 260 263 265 268 269 273 274 270 268 269 268 266 264 265
281 282 283 285 286 287 289 290 293 295 296 297 297 296 295 294 291 288 284 281 276 271 267 264 261 259 257 257 257 259 261 264 267 269 272 274 272 271 271 270 269 268 270
280 282 283 285 287 289 291 293 295 297 298 300 301 301 300 299 296 292 287 281 277 273 268 264 261 260 258 257 258 258 260 263 269 270 271 274 277 277 275 275 275 277 276
281 283 284 285 287 290 293 295 298 299 301 303 305 305 304 303 302 298 293 286 280 275 271 266 264 261 261 260 261 261 263 266 269 273 276 279 281 281 281 281 281 280 279
283 284 285 287 290 293 296 298 300 302 304 306 307 310 309 309 308 304 299 291 284 279 275 270 269 267 265 262 263 264 267 271 275 277 279 281 282 284 283 283 282 280 279
284 285 287 289 292 295 297 300 303 304 306 307 310 313 315 315 314 312 305 297 292 285 279 276 273 271 269 267 268 268 271 275 278 280 280 281 282 282 282 281 280 280 280
285 287 289 292 295 297 299 301 303 304 307 309 312 315 318 319 318 316 311 304 298 292 286 281 276 273 272 272 273 273 275 277 279 280 281 281 282 282 282 282 282 282 282
287 289 291 294 296 298 300 301 303 304 306 309 313 317 320 321 322 320 315 309 304 298 294 287 282 278 276 276 276 277 278 280 281 282 283 284 284 285 285 286 286 285 285
289 291 293 295 297 299 300 301 302 304 306 309 313 317 320 322 324 326 322 317 310 304 297 293 290 287 284 281 280 281 281 282 284 284 286 287 288 289 289 289 289 289 288
291 293 295 297 298 299 300 301 303 304 307 310 314 317 319 321 323 325 325 322 318 312 306 300 297 294 292 289 287 286 286 287 287 288 289 290 291 291 292 292 292 291 290
293 295 297 299 300 301 302 303 304 307 309 312 316 319 320 321 322 323 322 321 318 314 310 306 303 300 297 294 292 291 291 291 291 291 292 293 293 293 293 293 292 292 291
296 297 299 300 301 301 302 304 307 309 311 314 316 317 318 318 317 317 316 315 314 311 308 305 303 301 299 297 295 294 293 293 293 293 293 294 294 294 294 294 293 292 291
298 299 300 301 301 302 303 305 308 310 312 313 314 315 315 315 315 314 313 311 310 308 307 305 303 301 300 299 298 297 297 296 296 296 296 295 295 294 294 294 293 292 292